Change the Weather History Date:

Wednesday, December 5, 2012

  Actual Average Record
Temperature  
Mean Temperature 56 °F -  
Max Temperature 66 °F 62 °F 73 °F (1998)
Min Temperature 46 °F 51 °F 44 °F (2007)
Degree Days  
Heating Degree Days 9    
Growing Degree Days 6 (Base 50)    
Moisture  
Dew Point 46 °F    
Average Humidity 69    
Maximum Humidity 88    
Minimum Humidity 48    
Precipitation  
Precipitation 0.08 in 0.10 in - ()
Sea Level Pressure  
Sea Level Pressure 29.76 in    
Wind  
Wind Speed 10 mph ()    
Max Wind Speed 21 mph    
Max Gust Speed -    
Visibility 6.6 miles    
Events Rain    
Averages and records for this station are not official NWS values.
T = Trace of Precipitation, MM = Missing Value Source: Averaged Metar Reports

Daily Weather History Graph

Daily Weather History Graph

Search for Another Location

Airport or City:

Trip Planner

Search our weather history database for the weather conditions in past years. The results will help you decide how hot, cold, wet, or windy it might be!

Date:

Astronomy

Dec. 05, 2012 Rise Set
Actual Time 7:13 AM EET 5:06 PM EET
Civil Twilight 6:45 AM EET 5:34 PM EET
Nautical Twilight 6:13 AM EET 6:06 PM EET
Astronomical Twilight 5:42 AM EET 6:36 PM EET
Moon 11:26 PM EET (12/5) 11:36 AM EET (12/5)
Length of Visible Light 10h 49m
Length of Day
9h 53m
Waning Gibbous, 63% of the Moon is Illuminated
Dec 5
Waning Gibbous
Dec 6
Last Quarter
Dec 13
New
Dec 20
First Quarter
Dec 28
Full

Hourly Weather History & Observations

Time (EET) Temp. Windchill Dew Point Humidity Pressure Visibility Wind Dir Wind Speed Gust Speed Precip Events Conditions
12:20 AM 48.2 °F - 42.8 °F 82% 29.86 in 6.2 mi South 11.5 mph - N/A   Partly Cloudy
12:50 AM 46.4 °F 41.5 °F 42.8 °F 87% 29.86 in 6.2 mi South 10.4 mph - N/A   Partly Cloudy
1:20 AM 46.4 °F 40.7 °F 42.8 °F 87% 29.86 in 6.2 mi SSE 12.7 mph - N/A   Partly Cloudy
1:50 AM 46.4 °F 42.4 °F 42.8 °F 87% 29.83 in 6.2 mi South 8.1 mph - N/A   Partly Cloudy
2:00 AM 47 °F - 42 °F 79% 29.86 in 9 mi South 8.1 mph - -   Scattered Clouds
2:20 AM 46.4 °F 41.5 °F 42.8 °F 87% 29.83 in 6.2 mi South 10.4 mph - N/A   Partly Cloudy
2:50 AM 46.4 °F 42.4 °F 41.0 °F 81% 29.83 in 6.2 mi South 8.1 mph - N/A   Partly Cloudy
3:50 AM 46.4 °F 42.4 °F 41.0 °F 81% 29.83 in 6.2 mi South 8.1 mph - N/A   Partly Cloudy
4:20 AM 46.4 °F 41.9 °F 41.0 °F 81% 29.83 in 6.2 mi South 9.2 mph - N/A   Partly Cloudy
4:50 AM 46.4 °F 42.4 °F 41.0 °F 81% 29.83 in 6.2 mi South 8.1 mph - N/A   Partly Cloudy
5:20 AM 46.4 °F 42.4 °F 41.0 °F 81% 29.83 in 6.2 mi South 8.1 mph - N/A   Partly Cloudy
5:50 AM 46.4 °F 41.9 °F 39.2 °F 76% 29.83 in 6.2 mi South 9.2 mph - N/A   Scattered Clouds
6:20 AM 48.2 °F - 41.0 °F 76% 29.80 in 6.2 mi South 9.2 mph - N/A   Scattered Clouds
6:50 AM 51.8 °F - 42.8 °F 71% 29.80 in 6.2 mi South 8.1 mph - N/A   Scattered Clouds
7:20 AM 50.0 °F - 42.8 °F 76% 29.80 in 6.2 mi South 10.4 mph - N/A   Scattered Clouds
7:50 AM 53.6 °F - 42.8 °F 67% 29.80 in 6.2 mi South 6.9 mph - N/A   Partly Cloudy
8:00 AM 54 °F - 42 °F 54% 29.81 in 12 mi South 6.9 mph - -   Scattered Clouds
8:20 AM 55.4 °F - 42.8 °F 63% 29.80 in 6.2 mi SSE 10.4 mph - N/A   Partly Cloudy
8:50 AM 59.0 °F - 42.8 °F 55% 29.80 in 6.2 mi SSE 10.4 mph - N/A   Scattered Clouds
9:20 AM 59.0 °F - 44.6 °F 59% 29.77 in 6.2 mi SSE 10.4 mph - N/A   Scattered Clouds
9:50 AM 62.6 °F - 46.4 °F 55% 29.77 in 6.2 mi SSE 11.5 mph - N/A   Scattered Clouds
10:20 AM 62.6 °F - 46.4 °F 55% 29.77 in 6.2 mi SSE 12.7 mph - N/A   Scattered Clouds
10:50 AM 64.4 °F - 48.2 °F 56% 29.74 in 6.2 mi South 13.8 mph - N/A   Scattered Clouds
11:20 AM 64.4 °F - 48.2 °F 56% 29.74 in 6.2 mi South 16.1 mph - N/A   Scattered Clouds
11:50 AM 64.4 °F - 48.2 °F 56% 29.71 in 6.2 mi South 15.0 mph - N/A   Scattered Clouds
12:20 PM 64.4 °F - 48.2 °F 56% 29.71 in 6.2 mi SSW 16.1 mph - N/A   Scattered Clouds
12:50 PM 66.2 °F - 50.0 °F 56% 29.71 in 6.2 mi SSW 20.7 mph - N/A   Mostly Cloudy
1:20 PM 66.2 °F - 50.0 °F 56% 29.71 in 6.2 mi SSW 19.6 mph - N/A   Mostly Cloudy
1:50 PM 64.4 °F - 50.0 °F 59% 29.68 in 6.2 mi SSW 18.4 mph - N/A   Mostly Cloudy
2:00 PM 64 °F - 49 °F 48% 29.70 in 12 mi SSW 18.4 mph - -   Partly Cloudy
2:20 PM 60.8 °F - 53.6 °F 77% 29.68 in 6.2 mi SSW 11.5 mph - N/A Rain Light Rain
2:50 PM 57.2 °F - 53.6 °F 88% 29.71 in 6.2 mi SSW 9.2 mph - N/A Rain Light Rain
4:50 PM 59.0 °F - 50.0 °F 72% 29.68 in 6.2 mi SSW 9.2 mph - N/A   Mostly Cloudy
5:20 PM 59.0 °F - 50.0 °F 72% 29.68 in 6.2 mi South 10.4 mph - N/A   Mostly Cloudy
5:50 PM 59.0 °F - 48.2 °F 67% 29.68 in 6.2 mi South 8.1 mph - N/A   Mostly Cloudy
6:20 PM 59.0 °F - 48.2 °F 67% 29.68 in 6.2 mi West 11.5 mph - N/A   Mostly Cloudy
6:50 PM 59.0 °F - 48.2 °F 67% 29.71 in 6.2 mi SW 9.2 mph - N/A   Mostly Cloudy
7:20 PM 59.0 °F - 48.2 °F 67% 29.71 in 6.2 mi West 19.6 mph - N/A   Mostly Cloudy
7:50 PM 57.2 °F - 46.4 °F 67% 29.71 in 6.2 mi WSW 12.7 mph - N/A   Mostly Cloudy
8:00 PM 57 °F - 46 °F 57% 29.74 in 9 mi WSW 12.7 mph - - Rain Light Rain
8:20 PM 57.2 °F - 46.4 °F 67% 29.71 in 6.2 mi West 17.3 mph - N/A   Mostly Cloudy
8:50 PM 57.2 °F - 44.6 °F 63% 29.74 in 6.2 mi WSW 15.0 mph - N/A   Mostly Cloudy
9:20 PM 57.2 °F - 44.6 °F 63% 29.74 in 6.2 mi WSW 11.5 mph - N/A   Scattered Clouds
9:50 PM 57.2 °F - 46.4 °F 67% 29.74 in 6.2 mi WSW 6.9 mph - N/A   Partly Cloudy
10:20 PM 57.2 °F - 46.4 °F 67% 29.74 in 6.2 mi SW 9.2 mph - N/A   Partly Cloudy
10:50 PM 57.2 °F - 46.4 °F 67% 29.74 in 6.2 mi SW 10.4 mph - N/A   Partly Cloudy
11:20 PM 57.2 °F - 46.4 °F 67% 29.74 in 6.2 mi SW 11.5 mph - N/A   Partly Cloudy
11:50 PM 55.4 °F - 46.4 °F 72% 29.74 in 6.2 mi WSW 8.1 mph - N/A   Partly Cloudy